UAL2499 KORD-KLAX

Flight info

Callsign UAL2499
Flight time N/A
Altitude 38000
Route PEKUE PIPPN ROTTN LEFAM Q90 DNERO ANJLL4
Aircraft B772/H-SDE2E3FGHIJ5LORVWXY/LB1D1

Departure

Time N/A
Airport Chicago O'Hare International Airport (KORD)

Arrival

Time 2026-04-20 03:11
Airport Los Angeles International Airport (KLAX)
Time Latitude Longitude Altitude Speed Heading
2026-04-20 02:46 34.65502 -115.83546 37881 ft 465 kts 245°
2026-04-20 02:46 34.62834 -115.90703 37873 ft 465 kts 246°
2026-04-20 02:47 34.60188 -115.97879 37874 ft 465 kts 246°
2026-04-20 02:47 34.57579 -116.04958 37761 ft 455 kts 246°
2026-04-20 02:47 34.56295 -116.08436 37110 ft 450 kts 246°
2026-04-20 02:48 34.55007 -116.11920 35979 ft 456 kts 246°
2026-04-20 02:48 34.53693 -116.15467 34753 ft 465 kts 246°
2026-04-20 02:48 34.52353 -116.19080 33459 ft 474 kts 246°
2026-04-20 02:48 34.50995 -116.22739 32401 ft 475 kts 245°
2026-04-20 02:49 34.49645 -116.26371 31684 ft 469 kts 245°
2026-04-20 02:49 34.48311 -116.29957 30992 ft 464 kts 245°
2026-04-20 02:49 34.46992 -116.33497 30312 ft 459 kts 245°
2026-04-20 02:49 34.45685 -116.37001 29584 ft 454 kts 245°
2026-04-20 02:50 34.44392 -116.40464 28817 ft 449 kts 245°
2026-04-20 02:50 34.43118 -116.43873 28263 ft 440 kts 245°
2026-04-20 02:50 34.41868 -116.47214 27809 ft 430 kts 245°
2026-04-20 02:50 34.40613 -116.50453 27407 ft 420 kts 244°
2026-04-20 02:51 34.39319 -116.53587 26980 ft 411 kts 243°
2026-04-20 02:51 34.38033 -116.56644 26602 ft 404 kts 243°
2026-04-20 02:51 34.36772 -116.59655 26229 ft 399 kts 243°
2026-04-20 02:51 34.35533 -116.62643 25868 ft 396 kts 244°
2026-04-20 02:52 34.34306 -116.65614 25505 ft 393 kts 244°
2026-04-20 02:52 34.33090 -116.68565 25150 ft 390 kts 244°
2026-04-20 02:52 34.31900 -116.71506 24800 ft 388 kts 244°
2026-04-20 02:52 34.30725 -116.74437 24449 ft 386 kts 244°
2026-04-20 02:53 34.29556 -116.77356 24119 ft 385 kts 244°
2026-04-20 02:53 34.28390 -116.80264 23702 ft 384 kts 244°
2026-04-20 02:53 34.27222 -116.83169 23253 ft 381 kts 244°
2026-04-20 02:53 34.26075 -116.86015 22976 ft 375 kts 244°
2026-04-20 02:54 34.24928 -116.88855 22503 ft 377 kts 244°
2026-04-20 02:54 34.23791 -116.91672 22064 ft 378 kts 243°
2026-04-20 02:54 34.22621 -116.94566 21680 ft 377 kts 243°
2026-04-20 02:54 34.21489 -116.97365 21357 ft 375 kts 243°
2026-04-20 02:55 34.20452 -117.00241 21041 ft 373 kts 249°
2026-04-20 02:55 34.19650 -117.03219 20691 ft 372 kts 252°
2026-04-20 02:55 34.18917 -117.06208 20365 ft 371 kts 251°
2026-04-20 02:55 34.18162 -117.09176 20036 ft 371 kts 250°
2026-04-20 02:56 34.17375 -117.12140 19657 ft 370 kts 250°
2026-04-20 02:56 34.16576 -117.15091 19205 ft 372 kts 249°
2026-04-20 02:56 34.15757 -117.18076 18747 ft 370 kts 249°
2026-04-20 02:56 34.14961 -117.20970 18298 ft 358 kts 249°
2026-04-20 02:57 34.14175 -117.23821 17803 ft 357 kts 249°
2026-04-20 02:57 34.13394 -117.26649 17284 ft 353 kts 249°
2026-04-20 02:57 34.12616 -117.29467 16614 ft 356 kts 249°
2026-04-20 02:57 34.11834 -117.32300 16122 ft 355 kts 249°
2026-04-20 02:58 34.11057 -117.35115 15725 ft 351 kts 249°
2026-04-20 02:58 34.10295 -117.37898 15299 ft 348 kts 250°
2026-04-20 02:58 34.09590 -117.40693 14856 ft 347 kts 251°
2026-04-20 02:58 34.08908 -117.43470 14382 ft 339 kts 251°
2026-04-20 02:59 34.08240 -117.46170 13469 ft 336 kts 251°
2026-04-20 02:59 34.07562 -117.48878 12598 ft 338 kts 251°
2026-04-20 02:59 34.06819 -117.51522 12405 ft 327 kts 246°
2026-04-20 02:59 34.05913 -117.54064 11919 ft 330 kts 243°
2026-04-20 03:00 34.04963 -117.56570 11492 ft 328 kts 243°
2026-04-20 03:00 34.04027 -117.59062 11080 ft 325 kts 244°
2026-04-20 03:00 34.03113 -117.61553 10673 ft 324 kts 244°
2026-04-20 03:00 34.02218 -117.64023 10404 ft 317 kts 244°
2026-04-20 03:01 34.01356 -117.66412 10269 ft 306 kts 244°
2026-04-20 03:01 34.00598 -117.68753 10112 ft 295 kts 253°
2026-04-20 03:01 34.00275 -117.71161 9977 ft 288 kts 261°
2026-04-20 03:01 34.00083 -117.73557 9629 ft 287 kts 262°
2026-04-20 03:02 33.99897 -117.75935 9286 ft 278 kts 262°
2026-04-20 03:02 33.99708 -117.78168 8962 ft 259 kts 261°
2026-04-20 03:02 33.99577 -117.79584 8788 ft 257 kts 260°
2026-04-20 03:02 33.99371 -117.81729 8500 ft 256 kts 260°
2026-04-20 03:03 33.99166 -117.83860 8219 ft 256 kts 260°
2026-04-20 03:03 33.98961 -117.85981 7931 ft 254 kts 260°
2026-04-20 03:03 33.98755 -117.88097 7647 ft 254 kts 260°
2026-04-20 03:03 33.98550 -117.90203 7354 ft 253 kts 260°
2026-04-20 03:04 33.98344 -117.92306 7063 ft 252 kts 260°
2026-04-20 03:04 33.98137 -117.94405 6768 ft 251 kts 261°
2026-04-20 03:04 33.97933 -117.96485 6517 ft 249 kts 261°
2026-04-20 03:04 33.97728 -117.98558 6206 ft 249 kts 260°
2026-04-20 03:05 33.97528 -118.00593 5904 ft 237 kts 261°
2026-04-20 03:05 33.97352 -118.02558 5639 ft 236 kts 261°
2026-04-20 03:05 33.97168 -118.04509 5372 ft 235 kts 261°
2026-04-20 03:05 33.96973 -118.06469 5124 ft 234 kts 260°
2026-04-20 03:06 33.96779 -118.08391 4845 ft 234 kts 260°
2026-04-20 03:06 33.96577 -118.10366 4571 ft 233 kts 260°
2026-04-20 03:06 33.96379 -118.12304 4278 ft 234 kts 261°
2026-04-20 03:06 33.96181 -118.14258 3966 ft 235 kts 261°
2026-04-20 03:07 33.95983 -118.16202 3651 ft 230 kts 261°
2026-04-20 03:07 33.95796 -118.18046 3372 ft 214 kts 261°
2026-04-20 03:07 33.95619 -118.19788 3119 ft 207 kts 261°
2026-04-20 03:07 33.95446 -118.21479 2834 ft 199 kts 262°
2026-04-20 03:08 33.95282 -118.23092 2627 ft 191 kts 262°
2026-04-20 03:08 33.95125 -118.24640 2352 ft 186 kts 262°
2026-04-20 03:08 33.94970 -118.26163 2096 ft 177 kts 262°
2026-04-20 03:08 33.94824 -118.27595 1877 ft 171 kts 262°
2026-04-20 03:09 33.94684 -118.28969 1686 ft 159 kts 263°
2026-04-20 03:09 33.94546 -118.30314 1475 ft 161 kts 263°
2026-04-20 03:09 33.94414 -118.31618 1250 ft 148 kts 263°
2026-04-20 03:09 33.94298 -118.32765 1039 ft 132 kts 262°
2026-04-20 03:10 33.94184 -118.33871 857 ft 134 kts 263°
2026-04-20 03:10 33.94071 -118.34987 690 ft 133 kts 262°
2026-04-20 03:10 33.93955 -118.36086 509 ft 128 kts 262°
2026-04-20 03:10 33.93844 -118.37183 338 ft 134 kts 264°
2026-04-20 03:11 33.93739 -118.38284 168 ft 130 kts 262°
2026-04-20 03:11 33.93634 -118.39281 128 ft 98 kts 262°
2026-04-20 03:11 33.93581 -118.39801 126 ft 49 kts 263°
2026-04-20 03:11 33.93564 -118.40100 128 ft 25 kts 273°
2026-04-20 03:12 33.93601 -118.40289 125 ft 16 kts 292°
2026-04-20 03:12 33.93626 -118.40386 127 ft 10 kts 279°
2026-04-20 03:12 33.93626 -118.40465 130 ft 9 kts 265°
2026-04-20 03:12 33.93619 -118.40535 127 ft 8 kts 262°
2026-04-20 03:13 33.93609 -118.40604 126 ft 9 kts 261°
2026-04-20 03:13 33.93600 -118.40685 129 ft 11 kts 263°
2026-04-20 03:13 33.93594 -118.40776 127 ft 10 kts 273°
2026-04-20 03:13 33.93611 -118.40852 125 ft 9 kts 295°
2026-04-20 03:14 33.93657 -118.40893 127 ft 8 kts 345°
2026-04-20 03:14 33.93710 -118.40902 126 ft 7 kts 352°
2026-04-20 03:14 33.93758 -118.40910 127 ft 7 kts 358°
2026-04-20 03:14 33.93787 -118.40879 126 ft 5 kts 68°
2026-04-20 03:15 33.93796 -118.40810 125 ft 10 kts 82°
2026-04-20 03:15 33.93805 -118.40727 129 ft 10 kts 82°
2026-04-20 03:15 33.93812 -118.40650 126 ft 9 kts 85°